Stündliche Wetter Jumri Tilaiya

Heute, 5 März, Freitag

Zeit Temperatur Niederschläge Wind Luftdruck Luftfeuchtigkeit
00:00 +22°C° 0 mm 1 m/S 725 mmHg 22%
01:00 +21°C° 0 mm 1 m/S 725 mmHg 22%
02:00 +21°C° 0 mm 1 m/S 724 mmHg 23%
03:00 +21°C° 0 mm 1 m/S 724 mmHg 23%
04:00 +21°C° 0 mm 1 m/S 724 mmHg 23%
05:00 +20°C° 0 mm 1 m/S 724 mmHg 23%
06:00 +20°C° 0 mm 1 m/S 724 mmHg 25%
07:00 +23°C° 0 mm 1 m/S 725 mmHg 22%
08:00 +26°C° 0 mm 1 m/S 725 mmHg 18%
09:00 +30°C° 0 mm 1 m/S 726 mmHg 15%
10:00 +32°C° 0 mm 2 m/S 726 mmHg 13%
11:00 +35°C° 0 mm 2 m/S 726 mmHg 11%
12:00 +36°C° 0 mm 3 m/S 726 mmHg 9%
13:00 +37°C° 0 mm 4 m/S 725 mmHg 9%
14:00 +37°C° 0 mm 5 m/S 724 mmHg 8%
15:00 +39°C° 0 mm 6 m/S 723 mmHg 8%
16:00 +36°C° 0 mm 5 m/S 723 mmHg 9%
17:00 +35°C° 0 mm 4 m/S 722 mmHg 9%
18:00 +31°C° 0 mm 2 m/S 723 mmHg 11%
19:00 +29°C° 0 mm 2 m/S 723 mmHg 14%
20:00 +26°C° 0 mm 1 m/S 723 mmHg 16%
21:00 +24°C° 0 mm 1 m/S 723 mmHg 19%
22:00 +23°C° 0 mm 1 m/S 723 mmHg 20%
23:00 +23°C° 0 mm 1 m/S 724 mmHg 20%

Morgen, 6 März, Samstag

Zeit Temperatur Niederschläge Wind Luftdruck Luftfeuchtigkeit
00:00 +22°C° 0 mm 1 m/S 724 mmHg 21%
01:00 +22°C° 0 mm 1 m/S 724 mmHg 22%
02:00 +21°C° 0 mm 1 m/S 723 mmHg 22%
03:00 +21°C° 0 mm 1 m/S 723 mmHg 22%
04:00 +19°C° 0 mm 2 m/S 723 mmHg 23%
05:00 +19°C° 0 mm 2 m/S 723 mmHg 23%
06:00 +18°C° 0 mm 2 m/S 724 mmHg 23%
07:00 +21°C° 0 mm 2 m/S 725 mmHg 20%
08:00 +25°C° 0 mm 3 m/S 726 mmHg 17%
09:00 +28°C° 0 mm 3 m/S 727 mmHg 14%
10:00 +30°C° 0 mm 3 m/S 727 mmHg 12%
11:00 +33°C° 0 mm 4 m/S 727 mmHg 11%
12:00 +35°C° 0 mm 4 m/S 727 mmHg 9%
13:00 +35°C° 0 mm 5 m/S 726 mmHg 8%
14:00 +36°C° 0 mm 5 m/S 725 mmHg 7%
15:00 +36°C° 0 mm 6 m/S 724 mmHg 6%
16:00 +35°C° 0 mm 5 m/S 724 mmHg 7%
17:00 +33°C° 0 mm 4 m/S 724 mmHg 8%
18:00 +30°C° 0 mm 3 m/S 723 mmHg 10%
19:00 +28°C° 0 mm 2 m/S 724 mmHg 12%
20:00 +25°C° 0 mm 2 m/S 724 mmHg 14%
21:00 +23°C° 0 mm 1 m/S 724 mmHg 16%
22:00 +22°C° 0 mm 1 m/S 724 mmHg 16%
23:00 +22°C° 0 mm 1 m/S 724 mmHg 17%

übermorgen, 7 März, Sonntag

Zeit Temperatur Niederschläge Wind Luftdruck Luftfeuchtigkeit
00:00 +21°C° 0 mm 1 m/S 724 mmHg 18%
01:00 +21°C° 0 mm 1 m/S 724 mmHg 18%
02:00 +21°C° 0 mm 1 m/S 724 mmHg 18%
03:00 +21°C° 0 mm 1 m/S 723 mmHg 18%
04:00 +20°C° 0 mm 1 m/S 723 mmHg 18%
05:00 +19°C° 0 mm 2 m/S 723 mmHg 18%
06:00 +19°C° 0 mm 2 m/S 724 mmHg 18%
07:00 +23°C° 0 mm 2 m/S 725 mmHg 16%
08:00 +27°C° 0 mm 2 m/S 726 mmHg 14%
09:00 +30°C° 0 mm 2 m/S 727 mmHg 11%
10:00 +32°C° 0 mm 2 m/S 727 mmHg 10%
11:00 +35°C° 0 mm 2 m/S 727 mmHg 8%
12:00 +37°C° 0 mm 2 m/S 726 mmHg 7%
13:00 +38°C° 0 mm 3 m/S 726 mmHg 7%
14:00 +38°C° 0 mm 4 m/S 725 mmHg 7%
15:00 +40°C° 0 mm 4 m/S 724 mmHg 7%
16:00 +37°C° 0 mm 4 m/S 724 mmHg 8%
17:00 +35°C° 0 mm 3 m/S 723 mmHg 9%
18:00 +33°C° 0 mm 3 m/S 723 mmHg 11%
19:00 +30°C° 0 mm 2 m/S 724 mmHg 13%
20:00 +27°C° 0 mm 1 m/S 724 mmHg 15%
21:00 +25°C° 0 mm 1 m/S 725 mmHg 17%
22:00 +24°C° 0 mm 1 m/S 725 mmHg 17%
23:00 +24°C° 0 mm 1 m/S 725 mmHg 18%

8 März, Montag

Zeit Temperatur Niederschläge Wind Luftdruck Luftfeuchtigkeit
00:00 +23°C° 0 mm 1 m/S 725 mmHg 18%
01:00 +23°C° 0 mm 2 m/S 724 mmHg 19%
02:00 +21°C° 0 mm 2 m/S 724 mmHg 20%
03:00 +21°C° 0 mm 2 m/S 724 mmHg 21%
04:00 +20°C° 0 mm 2 m/S 724 mmHg 21%
05:00 +20°C° 0 mm 3 m/S 724 mmHg 21%
06:00 +20°C° 0 mm 3 m/S 724 mmHg 21%
07:00 +24°C° 0 mm 2 m/S 725 mmHg 19%
08:00 +28°C° 0 mm 2 m/S 726 mmHg 16%
09:00 +31°C° 0 mm 2 m/S 727 mmHg 14%
10:00 +35°C° 0 mm 2 m/S 727 mmHg 12%
11:00 +38°C° 0 mm 2 m/S 727 mmHg 9%
12:00 +41°C° 0 mm 1 m/S 727 mmHg 7%
13:00 +41°C° 0 mm 2 m/S 726 mmHg 7%
14:00 +42°C° 0 mm 3 m/S 725 mmHg 7%
15:00 +42°C° 0 mm 4 m/S 724 mmHg 7%
16:00 +40°C° 0 mm 4 m/S 724 mmHg 8%
17:00 +37°C° 0 mm 4 m/S 723 mmHg 10%
18:00 +36°C° 0 mm 4 m/S 723 mmHg 11%
19:00 +33°C° 0 mm 4 m/S 723 mmHg 14%
20:00 +29°C° 0 mm 3 m/S 723 mmHg 17%
21:00 +26°C° 0 mm 3 m/S 724 mmHg 21%
22:00 +26°C° 0 mm 3 m/S 724 mmHg 22%
23:00 +25°C° 0 mm 3 m/S 724 mmHg 24%

9 März, Dienstag

Zeit Temperatur Niederschläge Wind Luftdruck Luftfeuchtigkeit
00:00 +25°C° 0 mm 3 m/S 724 mmHg 26%
01:00 +24°C° 0 mm 2 m/S 724 mmHg 27%
02:00 +24°C° 0 mm 2 m/S 723 mmHg 29%
03:00 +23°C° 0 mm 1 m/S 723 mmHg 30%
04:00 +23°C° 0 mm 1 m/S 723 mmHg 32%
05:00 +22°C° 0 mm 1 m/S 723 mmHg 34%
06:00 +19°C° 0 mm 0 m/S 723 mmHg 36%
07:00 +24°C° 0 mm 1 m/S 724 mmHg 31%
08:00 +28°C° 0 mm 1 m/S 725 mmHg 26%
09:00 +31°C° 0 mm 1 m/S 726 mmHg 21%
10:00 +34°C° 0 mm 1 m/S 726 mmHg 18%
11:00 +37°C° 0 mm 1 m/S 726 mmHg 14%
12:00 +41°C° 0 mm 1 m/S 726 mmHg 10%
13:00 +42°C° 0 mm 3 m/S 725 mmHg 10%
14:00 +42°C° 0 mm 4 m/S 724 mmHg 9%
15:00 +42°C° 0 mm 6 m/S 724 mmHg 9%
16:00 +40°C° 0 mm 5 m/S 723 mmHg 10%
17:00 +38°C° 0 mm 4 m/S 723 mmHg 11%
18:00 +36°C° 0 mm 4 m/S 723 mmHg 12%
19:00 +34°C° 0 mm 3 m/S 723 mmHg 15%
20:00 +30°C° 0 mm 2 m/S 723 mmHg 17%
21:00 +28°C° 0 mm 1 m/S 724 mmHg 20%
22:00 +27°C° 0 mm 1 m/S 724 mmHg 21%
23:00 +26°C° 0 mm 1 m/S 724 mmHg 22%

10 März, Mittwoch

Zeit Temperatur Niederschläge Wind Luftdruck Luftfeuchtigkeit
00:00 +25°C° 0 mm 1 m/S 724 mmHg 22%
01:00 +25°C° 0 mm 1 m/S 723 mmHg 23%
02:00 +25°C° 0 mm 2 m/S 723 mmHg 23%
03:00 +25°C° 0 mm 2 m/S 723 mmHg 23%
04:00 +25°C° 0 mm 2 m/S 723 mmHg 23%
05:00 +25°C° 0 mm 2 m/S 723 mmHg 23%
06:00 +25°C° 0 mm 2 m/S 723 mmHg 23%
07:00 +28°C° 0 mm 2 m/S 724 mmHg 20%
08:00 +32°C° 0 mm 2 m/S 725 mmHg 17%
09:00 +36°C° 0 mm 2 m/S 726 mmHg 14%
10:00 +38°C° 0 mm 2 m/S 726 mmHg 12%
11:00 +40°C° 0 mm 2 m/S 726 mmHg 10%
12:00 +42°C° 0 mm 2 m/S 726 mmHg 9%
13:00 +42°C° 0 mm 2 m/S 725 mmHg 8%
14:00 +42°C° 0 mm 2 m/S 724 mmHg 8%
15:00 +42°C° 0 mm 3 m/S 723 mmHg 8%
16:00 +40°C° 0 mm 2 m/S 722 mmHg 9%
17:00 +39°C° 0 mm 2 m/S 722 mmHg 10%
18:00 +37°C° 0 mm 2 m/S 722 mmHg 11%
19:00 +34°C° 0 mm 1 m/S 722 mmHg 13%
20:00 +31°C° 0 mm 1 m/S 722 mmHg 15%
21:00 +29°C° 0 mm 1 m/S 723 mmHg 17%
22:00 +28°C° 0 mm 1 m/S 723 mmHg 18%
23:00 +27°C° 0 mm 1 m/S 723 mmHg 19%
Mehr zeigen

Wir brauchen deine Erlaubnis

Meteoprog und unser Service Anbieter werden persönliche Daten aufbewahren, so wie Cookies, Geräte Bezeichnung oder ähnliche Technologien von deinem Gerät und Prozess, so wie Persönliche Daten Inhalte und Werbungen, genauso wie social Media und den Verkehr zu analysieren.

  • Aufbewahrung und/oder Zugang zu deiner Geräte Informationen.

    Cookies, Geräte Bezeichnung oder andere Informationen, können aufbewahrt oder Zugang zu deinem Gerät erhalten, für den Grund, der oben angegeben wird.

  • Personalisierte Werbung und Inhalte, Messungen, Einblick in das Publikum und Produkt Entwicklung.

    Werbungen und Inhalte können personalisiert werden, basierend auf ein Profil. Mehr Daten können besser personalisierte Werbungen und Inhalte hinzufügen. Werbung und Inhalte können gezeigt und gemessen werden. Einblicke über das Publikum, welche die Werbung gesehen haben und den Inhalt, können abgeleitet werden. So wie Daten können genutzt werden, um es zu verbessern oder die Benutzer Erfahrung zu verbessern das System und die Software.

Wenn du “Ich stimme zu” klickst, erlaubst du uns, die Cookies zu benutzen die Geräte Bezeichnung, den Web oder ähnliche Technologien zu benutzen. Deine Settings, können in deinem Gerät bei deinem Browser geändert werden.

Für den bestimmten Zweck, berechtigten Interessen beruhen darauf, mehr als auf den Inhalt. Du kannst mehr darüber in unseren Privaten und Cookie Politik lesen.